Location: Lavardac
(44.1778°N, 0.2983°E)
Time: 06:39:43
(UTC+00:00)

BREEZE-M R/B - Pass Details

Date: 06 June 2020
Orbit: 311 x 4533 km, 49.7° (Epoch: 07 July)

Event Time Altitude Azimuth Distance (km) Brightness Sun altitude
Rises 21:54:33 0° 222° (SW) 6,710 8.1 -17.4°
Reaches altitude 10° 22:00:01 10° 220° (SW) 4,973 7.4 -17.8°
Maximum altitude 22:11:36 55° 148° (SSE) 1,456 4.5 -18.8°
Drops below altitude 10° 22:16:53 10° 71° (ENE) 2,344 6.0 -19.2°
Sets 22:18:39 0° 66° (ENE) 2,991 6.6 -19.3°
